COSMOS 2548 (47230 NORAD) Tracking and Keplerian Element Data

This shows tracking and keplerian element data for the satellite.

Feedback or suggestion? Click here.




ElementValue
Catalog47230
NameCOSMOS 2548
Epoch Orbit1045
Epoch Day56.95479407
Epoch Year2021
RAAN66.4621
Inclination82.4963
Eccentricity0.0016672
Argument of Perigee99.6525
Mean Anonmoly260.6438
Mean Motion12.42950984
Decay Rate2.7E-07
L11 47230U 20091D 21056.95479407 .00000027 00000-0 11899-3 0 9997
L22 47230 82.4963 66.4621 0016672 99.6525 260.6438 12.42950984 10456

Live tracking and technical data element details for COSMOS 2548 (NORAD 47230). COSMOS 2548 can be tracked NOW for your location showing map with azimuth and elevation plus other details from your city location.

Track the satellite on the map from your city or location and see movement details for azimuth, elevation, latitude, longitude, range, height, and movement on the map or in text.







IsCatalogInMostPopularTable: catalog: 47230, numindb: 31
Update: records affected: 1



GetName: 47230 COSMOS 2548

Hit Count: updated at: Sat, 27 Feb 2021 04:19:42 GMT